Location: *
(51.5000°N, 0.1100°W)
Time: 17:57:47
(UTC+00:00)

ADEOS II - Pass Details

Date: 25 May 2024
Orbit: 795 x 798 km, 98.7° (Epoch: 16 June)

Event Time Altitude Azimuth Distance (km) Brightness Sun altitude
Rises 01:56:52 0° 19° (NNE) 3,314 7.2 -12.9°
Reaches altitude 10° 01:59:19 10° 26° (NNE) 2,379 6.1 -12.7°
Maximum altitude 02:04:21 46° 99° (E) 1,071 2.9 -12.3°
Drops below altitude 10° 02:09:22 10° 172° (S) 2,362 4.1 -11.9°
Enters shadow 02:09:39 - 173° (S) 2,470 4.2 -11.9°
